Wetbulb
64.65 64.62 64.08 64.55 63.52 62.14 60.82 59.83 59.39 58.77 57.82 58.07 57.09 56.79 56.85 56.06 55.78 56.61 55.84 63.90 66.49 66.49 65.55 65.16 65.74 65.99 65.91 65.75 65.45 65.48 65.33 65.61 65.74 66.38 66.82 66.99 67.14 68.08 69.69 69.69 69.93 70.18 71.27
63.35 62.90 62.82 63.29 60.88 59.75 58.75 57.69 56.81 56.19 55.86 55.92 56.12 56.41 56.43 56.24 56.26 55.97 57.10 56.81 63.62 65.67 64.35 64.29 64.16 63.95 64.24 64.29 64.39 64.52 64.23 64.41 64.71 65.23 65.43 65.74 66.15 67.45 68.03 69.27 69.76 69.59 69.05
61.69 61.22 61.62 60.15 58.22 58.22 57.34 56.93 56.01 55.83 55.43 55.59 54.30 55.13 55.24 55.00 55.28 55.95 56.44 56.18 57.60 62.17 62.32 62.33 62.77 63.16 63.15 63.49 63.67 63.61 63.80 63.81 64.78 63.85 65.00 64.74 65.31 65.76 67.55 68.64 68.45 68.79 68.67
60.96 60.21 59.35 58.50 57.92 56.99 56.31 55.38 55.14 54.98 52.98 52.53 52.04 52.99 52.63 53.80 54.71 54.57 55.70 55.10 54.78 56.20 58.01 61.24 61.75 62.09 62.39 62.60 62.83 62.73 62.75 63.02 62.85 63.04 63.92 63.97 63.73 65.11 65.78 67.28 68.34 68.93 68.71
61.76 60.24 58.94 58.10 56.15 55.97 55.07 55.31 53.82 51.92 50.39 50.49 52.06 52.98 53.15 53.41 52.59 54.70 52.57 52.86 53.29 54.37 54.94 58.14 59.95 60.48 60.76 61.16 62.04 62.11 62.13 61.79 61.96 62.46 62.71 63.59 63.69 63.87 64.68 65.58 66.14 67.54 67.97
59.75 57.60 56.36 55.50 56.25 54.31 53.21 53.30 51.01 50.83 49.94 50.03 52.27 52.84 50.93 51.55 51.16 50.57 50.75 52.42 52.92 53.19 52.92 53.37 53.15 54.79 59.30 59.79 60.34 60.66 61.49 61.04 61.40 61.84 62.01 62.42 63.02 63.16 63.45 64.46 65.34 66.24 66.87
57.13 56.13 54.60 54.56 54.55 53.06 52.48 52.00 50.86 50.02 49.73 51.60 49.09 49.75 48.53 49.84 48.74 50.98 50.40 50.70 50.85 51.58 52.31 52.90 52.81 53.58 54.22 58.46 59.20 58.92 59.61 61.04 61.44 61.61 61.35 61.61 61.91 62.65 63.17 63.40 63.97 64.87 65.57
55.92 54.86 53.92 54.34 53.31 52.33 51.32 50.79 50.58 51.35 49.24 52.48 50.29 48.56 45.35 46.47 49.31 50.25 48.48 49.40 49.36 50.79 51.58 52.02 52.02 53.13 53.53 54.84 56.61 59.29 59.90 60.56 61.09 61.65 60.53 60.74 61.33 62.01 62.77 63.22 63.30 63.99 64.53
54.78 54.14 54.27 53.21 52.84 51.60 50.61 50.90 51.43 50.86 50.66 50.97 51.17 49.29 46.05 44.64 47.37 47.32 47.18 47.75 48.70 49.57 50.48 51.44 51.55 52.23 53.21 53.53 56.38 56.51 59.12 59.57 60.62 61.26 60.79 60.84 61.09 61.40 62.02 62.84 63.21 63.32 64.11
54.84 55.04 54.08 53.55 52.33 51.00 50.31 51.46 52.74 52.54 52.38 49.75 50.34 51.00 51.15 49.85 46.02 44.78 47.21 47.95 48.42 50.11 50.33 50.87 51.25 51.66 53.38 54.94 57.31 58.79 58.17 58.89 59.92 60.39 60.01 60.30 60.51 61.26 61.68 61.70 62.19 62.56 62.94
54.96 55.25 53.32 52.87 51.81 50.87 50.76 50.80 51.04 51.67 53.00 52.60 50.25 50.51 50.60 50.28 48.98 46.72 44.06 46.12 49.46 50.36 50.98 50.97 50.82 51.02 52.76 54.34 53.40 55.11 58.07 58.35 58.18 58.26 59.35 59.44 59.70 60.29 60.81 61.13 61.59 61.44 62.14
51.69 52.65 53.12 52.15 51.50 50.70 50.23 51.19 51.98 51.08 51.21 52.35 52.66 52.01 51.22 49.56 48.49 48.35 46.58 46.85 47.38 49.21 51.28 51.00 50.12 50.76 51.51 51.59 55.92 57.82 58.19 58.80 58.32 57.80 57.96 57.97 58.54 59.07 59.64 60.40 60.99 61.18 61.79
48.95 48.94 50.29 49.68 49.28 50.47 51.01 50.74 50.58 51.15 52.01 49.15 49.20 49.61 52.12 49.13 51.25 49.95 46.42 46.66 46.23 48.11 49.49 51.84 50.82 50.87 51.75 51.46 53.42 57.50 57.96 57.65 58.08 57.74 57.22 57.23 57.78 58.00 58.41 59.09 59.84 60.32 60.92
47.65 48.47 48.64 48.77 49.98 50.77 50.48 50.35 50.17 50.43 49.94 49.10 48.41 48.18 49.03 48.91 51.24 51.33 48.85 46.71 42.44 42.62 45.71 45.78 50.53 51.59 51.89 52.64 55.40 57.12 54.39 56.11 57.21 57.73 57.59 57.65 57.89 58.29 58.83 58.53 58.37 59.20 59.36
49.95 49.27 49.10 48.99 49.20 49.51 48.73 49.79 48.31 48.39 48.05 47.32 47.46 47.25 47.12 48.33 48.60 48.61 49.73 48.93 45.70 41.28 40.75 45.26 47.28 51.51 52.75 53.09 55.03 53.29 52.54 54.89 57.02 57.18 56.91 57.10 57.86 58.13 58.28 58.48 58.85 58.91 59.26
48.40 48.59 48.62 48.48 49.23 50.08 51.28 51.11 47.84 46.80 44.87 45.18 46.46 46.13 46.37 47.82 48.91 47.67 48.22 48.09 46.69 43.82 41.25 43.56 46.66 49.82 51.95 52.93 54.07 51.78 51.90 53.94 54.54 55.82 56.83 57.44 57.44 56.80 56.82 57.86 58.16 58.79 58.91
48.26 48.25 48.28 48.10 48.42 48.27 47.22 45.45 44.20 44.50 43.74 43.28 43.96 45.45 47.02 49.03 48.99 48.05 47.36 47.48 46.69 42.97 41.01 43.97 47.01 49.31 50.43 51.30 48.82 48.89 50.87 51.13 52.36 54.64 56.84 56.86 56.78 56.54 55.87 55.65 57.77 58.44 58.49
47.47 48.22 48.19 48.28 48.32 45.87 44.26 43.38 42.61 43.01 42.47 42.19 42.79 44.00 46.94 49.57 48.35 46.91 46.43 46.39 46.00 45.33 43.70 42.59 45.53 46.98 48.48 50.64 47.46 46.71 49.36 51.06 50.96 53.88 56.76 56.22 56.34 55.63 55.11 54.59 54.72 55.84 56.72
47.07 47.87 48.25 47.89 45.48 45.16 42.89 42.06 41.58 41.82 41.60 41.79 42.58 46.65 46.29 48.58 46.91 46.42 45.65 45.32 44.43 42.60 41.97 42.87 42.83 46.38 47.25 46.62 45.85 45.55 47.90 49.24 51.00 53.90 55.65 55.83 55.75 55.19 54.74 53.49 53.80 53.76 52.81
47.47 47.16 47.91 47.73 46.74 44.63 44.20 42.80 42.09 41.33 41.24 42.82 44.89 45.56 45.64 46.34 45.75 45.97 44.31 42.91 42.60 38.89 41.21 42.81 43.67 43.98 45.40 46.04 45.11 44.52 45.81 48.44 48.41 51.33 54.70 55.43 55.35 55.13 54.40 52.87 53.05 52.99 52.55
48.55 48.52 48.22 47.53 45.58 45.14 45.11 41.89 41.27 41.33 40.31 41.71 44.19 46.53 46.38 47.31 49.25 48.10 45.14 43.04 41.80 39.55 40.42 42.22 42.39 44.63 43.25 44.06 43.71 43.28 44.86 47.53 47.83 52.34 51.78 53.60 53.10 52.45 53.07 51.82 52.33 51.72 52.95
47.18 47.64 47.77 47.22 44.88 46.84 45.59 46.25 44.69 41.15 40.79 41.83 42.11 44.73 45.22 46.31 46.03 45.56 44.92 45.18 44.62 41.74 40.96 39.97 42.95 41.83 41.71 44.05 42.92 43.66 43.28 45.58 43.40 50.49 49.59 51.42 52.01 50.81 52.04 50.97 50.66 49.90 50.86
46.44 46.51 46.69 46.67 45.11 44.69 45.92 44.89 45.46 41.48 40.04 42.88 43.77 43.70 44.17 44.83 45.69 42.94 42.96 43.75 43.87 44.80 45.38 42.49 40.03 39.52 40.52 42.30 41.99 42.26 41.56 46.06 44.66 47.55 48.97 49.09 50.89 50.12 51.57 50.88 49.94 50.37 48.75
46.16 46.02 46.58 46.69 46.18 46.12 46.86 43.66 43.92 40.12 41.36 42.15 42.29 42.57 42.12 43.08 43.95 41.87 41.51 40.97 41.14 40.90 39.92 41.72 40.12 41.21 42.36 43.21 44.00 45.40 45.58 46.28 46.78 49.53 48.44 47.10 49.85 49.02 51.10 51.11 49.47 48.99 49.34
45.31 45.57 46.42 45.90 44.71 45.79 43.68 42.63 41.44 40.01 40.44 39.46 41.07 40.69 42.91 42.85 42.83 42.05 40.59 40.05 40.26 39.71 44.28 44.18 43.71 43.54 43.12 44.44 46.64 45.44 44.77 42.11 42.91 45.91 47.54 46.58 48.84 47.94 49.49 50.10 51.52 49.96 48.60
45.50 46.35 46.16 46.15 45.64 43.22 42.40 42.34 41.62 39.31 37.55 38.36 38.94 39.67 43.20 42.59 41.80 40.88 40.08 39.90 38.48 40.05 40.38 38.80 40.80 42.29 43.75 45.67 47.32 47.21 47.58 43.81 42.65 43.56 46.98 45.44 47.88 47.99 45.77 49.76 50.66 51.25 50.97
MSLP
1017.93 1018.00 1018.03 1018.14 1018.29 1018.16 1018.36 1018.50 1018.42 1018.36 1018.15 1017.94 1017.81 1017.72 1017.31 1017.26 1016.91 1016.51 1016.34 1015.99 1015.52 1015.14 1014.87 1014.57 1014.33 1014.25 1014.14 1014.09 1014.15 1014.12 1014.04 1014.00 1013.94 1013.82 1013.69 1013.65 1013.65 1013.58 1013.45 1013.38 1013.44 1013.60 1013.70
1018.26 1018.65 1018.75 1018.65 1018.77 1018.74 1018.55 1018.54 1018.56 1018.44 1018.26 1018.17 1018.14 1017.98 1017.54 1017.21 1017.13 1016.66 1016.32 1016.03 1015.49 1014.97 1014.66 1014.45 1014.30 1014.19 1014.00 1013.85 1013.77 1013.75 1013.68 1013.52 1013.49 1013.37 1013.21 1013.11 1013.02 1012.90 1012.81 1012.73 1012.81 1012.90 1013.13
1018.46 1018.87 1019.07 1019.22 1019.37 1019.05 1018.95 1018.90 1018.90 1018.57 1018.72 1018.28 1018.58 1018.29 1017.72 1017.48 1017.10 1016.73 1016.37 1016.07 1015.56 1015.11 1014.80 1014.49 1014.20 1013.99 1013.85 1013.63 1013.40 1013.28 1013.14 1012.87 1012.68 1012.76 1012.61 1012.48 1012.39 1012.27 1012.09 1012.01 1012.14 1012.29 1012.39
1019.03 1019.29 1019.58 1019.67 1019.50 1019.45 1019.40 1019.34 1019.31 1019.31 1019.24 1018.95 1018.98 1018.47 1018.02 1017.52 1017.18 1016.92 1016.51 1016.38 1015.97 1015.41 1014.93 1014.43 1014.15 1013.81 1013.51 1013.27 1012.99 1012.75 1012.52 1012.35 1012.33 1012.18 1012.00 1011.80 1011.62 1011.55 1011.45 1011.33 1011.35 1011.34 1011.48
1019.25 1019.58 1020.00 1019.97 1019.66 1019.79 1019.71 1019.77 1019.71 1019.81 1019.51 1019.46 1019.22 1018.52 1018.13 1017.76 1017.36 1017.04 1016.93 1016.40 1015.98 1015.53 1015.15 1014.77 1014.41 1013.97 1013.56 1013.14 1012.74 1012.34 1012.21 1012.05 1011.99 1011.75 1011.35 1011.14 1010.94 1010.81 1010.84 1010.67 1010.67 1010.67 1010.75
1019.30 1019.71 1019.97 1019.93 1019.96 1019.97 1020.02 1020.15 1020.18 1019.92 1019.76 1019.63 1019.21 1018.68 1018.16 1017.66 1017.61 1017.61 1017.21 1016.63 1016.15 1015.65 1015.35 1014.99 1014.47 1013.90 1013.32 1013.05 1012.62 1012.18 1011.96 1011.72 1011.43 1011.28 1010.96 1010.72 1010.61 1010.32 1010.06 1010.14 1009.98 1009.97 1010.06
1019.55 1019.77 1020.01 1020.00 1019.91 1020.03 1020.23 1020.25 1020.14 1019.94 1019.82 1019.50 1019.33 1018.87 1018.12 1017.48 1017.66 1017.47 1017.29 1016.80 1016.30 1015.92 1015.49 1014.84 1014.22 1013.65 1013.22 1012.80 1012.29 1011.83 1011.49 1011.20 1010.81 1010.53 1010.34 1010.11 1009.99 1009.80 1009.61 1009.35 1009.39 1009.45 1009.44
1019.57 1019.64 1019.81 1019.99 1019.97 1020.14 1020.17 1020.03 1020.11 1020.14 1019.93 1019.39 1019.45 1019.06 1018.59 1018.13 1017.64 1017.62 1017.40 1017.00 1016.64 1016.10 1015.19 1014.59 1014.21 1013.68 1013.22 1012.57 1011.98 1011.46 1010.96 1010.67 1010.29 1009.92 1009.63 1009.41 1009.24 1009.06 1008.95 1008.70 1008.51 1008.57 1008.75
1019.37 1019.47 1019.63 1019.80 1020.07 1020.17 1020.24 1020.09 1019.93 1020.05 1019.81 1019.65 1019.48 1019.60 1019.18 1018.54 1017.97 1017.53 1017.20 1016.83 1016.44 1015.79 1015.23 1014.56 1013.99 1013.44 1012.83 1012.18 1011.48 1011.04 1010.67 1010.26 1009.84 1009.35 1009.02 1008.68 1008.47 1008.33 1008.19 1007.99 1007.87 1007.81 1007.92
1019.27 1019.27 1019.53 1019.80 1019.96 1020.05 1020.19 1020.09 1019.85 1019.89 1019.72 1019.63 1019.38 1019.17 1019.07 1018.81 1018.46 1017.44 1016.96 1016.53 1016.05 1015.72 1015.07 1014.40 1013.71 1013.16 1012.45 1011.60 1011.04 1010.69 1010.37 1010.05 1009.52 1008.99 1008.57 1008.30 1008.05 1007.74 1007.47 1007.41 1007.33 1007.32 1007.40
1019.37 1019.53 1019.70 1019.77 1019.86 1019.91 1020.01 1020.00 1019.72 1019.58 1019.48 1019.34 1019.31 1019.10 1018.77 1018.46 1018.30 1018.13 1016.71 1016.23 1015.91 1015.32 1014.84 1014.20 1013.59 1013.00 1012.28 1011.63 1011.01 1010.48 1010.01 1009.55 1009.05 1008.59 1008.20 1007.94 1007.63 1007.32 1006.96 1006.67 1006.59 1006.51 1006.61
1019.93 1019.97 1019.84 1019.86 1019.81 1019.71 1019.77 1019.74 1019.49 1019.35 1019.24 1019.09 1018.92 1018.81 1018.64 1018.37 1017.91 1017.55 1016.90 1016.09 1015.45 1014.84 1014.53 1013.77 1013.22 1012.66 1011.97 1011.43 1010.69 1010.04 1009.41 1008.86 1008.37 1008.00 1007.66 1007.33 1006.90 1006.58 1006.34 1006.08 1005.80 1005.70 1005.81
1020.29 1020.29 1020.17 1020.15 1019.90 1019.62 1019.45 1019.33 1019.27 1019.10 1018.85 1018.88 1018.68 1018.51 1018.14 1017.95 1017.55 1017.10 1016.76 1016.07 1015.44 1014.83 1014.22 1013.47 1012.83 1012.23 1011.55 1011.01 1010.32 1009.59 1008.81 1008.25 1007.75 1007.35 1007.01 1006.61 1006.23 1005.87 1005.65 1005.29 1005.12 1004.98 1004.98
1020.51 1020.27 1020.10 1019.90 1019.60 1019.35 1019.15 1019.00 1018.96 1018.83 1018.61 1018.51 1018.37 1018.15 1017.77 1017.43 1017.10 1016.79 1016.57 1016.23 1015.42 1014.93 1014.28 1013.42 1012.56 1011.90 1011.13 1010.52 1009.87 1009.25 1008.64 1007.95 1007.30 1006.69 1006.22 1005.69 1005.22 1004.77 1004.48 1004.33 1004.28 1004.18 1004.25
1020.46 1020.23 1020.08 1019.87 1019.41 1018.97 1018.77 1018.57 1018.67 1018.59 1018.59 1018.44 1018.14 1017.79 1017.48 1017.06 1016.70 1016.39 1016.17 1016.11 1015.95 1015.01 1014.28 1013.39 1013.01 1011.56 1010.70 1010.03 1009.54 1009.05 1008.55 1007.62 1006.73 1006.24 1005.74 1005.06 1004.27 1003.49 1003.12 1002.97 1003.00 1003.14 1003.31
1020.48 1020.38 1020.11 1019.74 1019.35 1018.96 1018.62 1018.74 1018.92 1019.01 1018.76 1018.51 1018.12 1017.79 1017.30 1016.74 1016.34 1015.98 1015.83 1015.69 1015.68 1015.48 1014.65 1013.86 1012.60 1011.61 1010.68 1009.91 1009.27 1008.95 1008.31 1007.29 1006.55 1005.90 1005.17 1004.37 1003.58 1002.81 1002.14 1001.63 1001.59 1001.76 1002.07
1020.58 1020.34 1019.96 1019.64 1019.42 1019.36 1019.46 1019.37 1019.31 1019.13 1018.93 1018.58 1018.10 1017.65 1017.16 1016.50 1016.00 1015.75 1015.57 1015.38 1015.33 1015.17 1014.67 1013.41 1012.54 1011.46 1010.62 1009.87 1009.22 1008.78 1008.03 1007.13 1006.35 1005.59 1004.81 1004.02 1003.18 1002.48 1001.69 1000.93 1000.43 1000.45 1000.81
1020.37 1020.23 1019.95 1019.69 1019.68 1019.79 1019.78 1019.69 1019.60 1019.26 1018.93 1018.56 1018.04 1017.47 1016.89 1016.23 1015.76 1015.56 1015.41 1015.29 1015.07 1014.87 1014.53 1013.46 1012.42 1011.39 1010.62 1009.72 1009.15 1008.64 1007.86 1006.90 1006.25 1005.35 1004.56 1003.86 1003.03 1002.32 1001.55 1000.91 1000.29 999.90 999.88
1020.42 1020.11 1019.84 1019.87 1019.85 1019.82 1019.68 1019.57 1019.38 1019.07 1018.85 1018.42 1017.82 1017.23 1016.78 1016.12 1015.74 1015.41 1015.26 1015.10 1014.84 1014.69 1014.16 1013.39 1012.39 1011.45 1010.78 1009.79 1009.17 1008.51 1007.91 1006.88 1006.05 1005.27 1004.45 1003.83 1003.14 1002.42 1001.53 1000.94 1000.24 999.71 999.38
1020.20 1019.97 1019.80 1019.82 1019.62 1019.50 1019.20 1019.05 1018.99 1018.84 1018.61 1018.12 1017.53 1017.01 1016.50 1016.06 1015.56 1015.16 1015.00 1014.89 1014.58 1014.32 1013.79 1013.01 1012.17 1011.35 1010.83 1009.85 1009.29 1008.75 1007.72 1006.96 1006.02 1005.24 1004.43 1003.90 1003.26 1002.42 1001.63 1000.90 1000.04 999.29 998.59
1019.86 1019.70 1019.53 1019.47 1019.24 1018.99 1018.61 1018.64 1018.61 1018.55 1018.20 1017.80 1017.29 1016.68 1016.12 1015.73 1015.32 1015.13 1015.09 1014.86 1014.40 1013.92 1013.34 1012.84 1012.10 1011.43 1010.91 1010.24 1009.67 1008.99 1008.38 1007.19 1006.16 1005.33 1004.82 1004.11 1003.54 1002.85 1001.92 1000.98 1000.25 999.26 997.86
1019.61 1019.43 1019.19 1018.99 1018.77 1018.38 1018.19 1018.14 1018.11 1018.26 1018.01 1017.58 1017.11 1016.36 1015.86 1015.39 1015.18 1015.00 1014.83 1014.48 1014.14 1013.57 1013.09 1012.75 1012.15 1011.65 1011.00 1010.41 1009.79 1009.21 1008.62 1007.62 1006.62 1005.56 1005.51 1004.45 1004.00 1003.44 1002.56 1001.96 1001.06 1000.12 999.07
1019.46 1019.19 1018.79 1018.42 1018.29 1017.84 1017.65 1017.71 1018.10 1018.11 1017.78 1017.31 1016.74 1016.15 1015.61 1015.10 1014.74 1014.64 1014.53 1014.22 1013.78 1013.25 1012.73 1012.31 1012.01 1011.62 1011.02 1010.31 1009.96 1009.14 1008.53 1008.07 1007.40 1006.10 1005.84 1004.93 1004.46 1004.06 1003.51 1002.72 1001.74 1001.10 1000.53
1019.16 1018.76 1018.38 1017.90 1017.75 1017.46 1017.41 1017.89 1018.17 1018.03 1017.61 1017.18 1016.69 1016.19 1015.67 1015.06 1014.61 1014.65 1014.36 1013.80 1013.19 1012.64 1012.19 1011.83 1011.66 1011.22 1010.68 1009.93 1009.36 1008.66 1008.22 1007.79 1006.96 1006.06 1005.90 1005.35 1005.06 1004.77 1004.10 1003.55 1002.96 1002.26 1001.62
1019.04 1018.60 1018.09 1017.58 1017.55 1017.59 1017.76 1018.16 1018.22 1017.92 1017.54 1017.23 1016.73 1016.09 1015.57 1015.08 1014.87 1014.54 1014.04 1013.51 1012.93 1012.37 1011.70 1011.43 1011.02 1010.55 1009.88 1009.32 1008.74 1008.13 1007.86 1007.82 1007.13 1006.31 1006.21 1005.89 1005.37 1005.17 1004.75 1004.39 1003.89 1003.55 1003.01
1018.68 1018.47 1018.06 1017.67 1017.79 1018.09 1018.18 1018.28 1018.13 1017.87 1017.58 1017.06 1016.52 1015.92 1015.44 1015.07 1014.55 1014.18 1013.87 1013.36 1012.78 1012.26 1011.77 1011.25 1010.60 1009.99 1009.56 1009.15 1008.85 1008.49 1007.83 1007.72 1007.46 1006.73 1006.36 1006.20 1005.64 1005.58 1005.32 1005.11 1004.66 1004.27 1003.82
Wind_Speed
4 4 4 5 5 4 5 5 5 5 6 6 6 6 8 7 7 4 3 15 16 16 20 21 19 17 17 16 16 16 16 17 18 19 19 20 21 21 21 19 17 15 17
5 5 5 5 5 4 4 4 4 4 4 5 7 8 8 7 8 8 6 6 17 17 14 13 12 14 15 14 13 13 14 14 16 18 20 20 21 21 21 21 20 18 17
6 6 4 4 4 5 6 5 5 5 6 6 7 7 6 8 9 9 8 5 8 12 15 14 15 16 16 17 18 19 20 20 20 20 20 20 22 21 21 21 22 21 20
8 6 5 4 5 5 4 4 4 6 5 6 5 6 5 7 9 11 8 7 6 5 9 17 19 17 19 20 20 20 20 19 19 21 22 23 22 21 21 21 22 21 22
6 5 4 4 5 4 4 4 5 4 4 4 7 7 6 7 8 7 10 9 8 7 7 14 19 20 18 19 20 21 23 22 20 22 23 21 22 21 20 22 22 22 20
6 5 3 5 5 4 4 4 4 3 2 4 7 7 5 7 4 4 8 7 8 9 9 9 5 7 18 21 22 23 22 23 23 22 23 21 20 22 20 21 21 22 23
4 4 2 3 3 4 3 2 2 3 3 2 3 6 4 6 3 10 6 7 7 8 10 10 8 8 7 20 20 19 21 22 23 21 22 22 22 20 22 22 21 20 20
3 2 1 3 3 2 3 3 2 3 2 2 2 4 4 4 2 8 4 6 6 8 9 11 12 11 10 8 13 20 20 20 22 21 20 22 21 21 22 23 22 21 20
1 2 3 2 3 3 2 3 3 3 2 3 2 2 3 3 7 2 5 4 7 6 9 10 11 11 11 10 13 13 19 19 21 22 22 23 22 20 20 22 23 22 22
4 2 3 3 3 2 3 3 3 3 1 4 2 2 3 5 3 5 3 5 4 7 8 9 8 10 12 10 14 16 15 20 23 23 21 21 22 23 22 18 18 18 20
3 2 4 3 2 1 3 4 4 4 3 3 2 3 3 3 5 4 10 8 6 6 6 8 8 7 9 5 6 7 22 22 22 23 23 25 25 25 25 23 22 21 21
5 6 4 4 0 1 3 4 4 4 4 4 3 4 4 4 5 4 7 10 10 8 8 7 6 7 8 5 13 20 22 22 20 21 22 24 25 26 26 27 24 22 23
3 6 5 5 4 4 5 5 5 5 4 3 5 4 4 4 5 4 3 7 8 9 4 7 8 7 7 5 9 20 23 23 22 20 22 23 23 24 26 25 27 26 24
3 4 6 6 7 6 5 5 2 4 5 4 6 5 4 4 4 3 2 4 10 8 7 13 8 8 7 8 13 20 12 20 22 19 19 20 23 25 26 26 27 26 25
4 6 7 6 7 6 6 6 3 5 5 5 6 6 4 4 3 3 2 2 4 9 10 7 9 11 10 9 9 9 11 18 23 19 20 21 22 23 24 24 25 26 25
5 6 7 7 7 7 6 7 5 5 6 5 5 7 5 3 4 3 3 3 2 3 7 8 11 13 12 10 7 7 10 19 20 21 21 21 19 17 16 22 24 24 25
5 6 6 6 6 7 8 7 7 7 7 7 7 8 8 6 4 3 4 4 3 3 7 9 10 11 13 11 6 5 9 10 10 20 20 21 18 14 15 14 14 21 22
5 6 6 6 7 7 6 6 6 6 7 8 8 7 9 8 5 4 4 5 3 4 5 11 12 11 12 11 5 6 9 8 9 16 18 19 16 15 15 14 10 9 19
5 6 5 5 5 5 4 3 4 6 7 7 8 8 8 8 5 4 3 3 4 5 7 6 9 9 7 4 5 4 8 9 8 17 14 14 15 16 16 14 11 8 10
4 4 5 2 3 4 2 2 5 6 6 8 8 7 6 7 8 4 3 4 5 5 7 8 9 8 5 6 4 6 11 8 11 9 10 9 13 15 15 18 16 15 11
4 4 5 1 3 4 4 3 2 6 6 7 7 7 6 14 14 7 4 7 8 5 6 8 8 6 7 8 8 4 7 9 10 2 8 5 5 7 9 15 16 19 10
4 4 6 4 6 5 7 8 5 5 7 7 7 6 6 10 6 7 9 13 12 8 9 6 6 7 9 9 5 7 5 9 9 2 8 5 5 7 8 9 20 21 17
3 6 7 6 8 8 10 7 4 5 6 8 7 8 7 9 8 3 7 13 14 16 15 6 5 8 9 10 8 8 5 7 8 8 6 3 5 6 7 9 21 20 21
4 6 7 8 6 7 7 4 4 6 6 7 7 8 11 11 6 3 8 10 11 10 7 5 5 8 9 11 10 8 7 6 8 1 4 2 3 4 6 7 19 20 21
5 6 6 8 5 6 10 4 5 6 6 7 9 8 11 10 8 10 11 10 10 9 7 11 14 14 14 13 13 3 3 3 4 3 4 2 2 3 3 5 6 12 17
6 5 8 7 11 5 6 8 5 3 5 5 6 7 11 11 12 14 8 8 9 8 8 9 9 8 9 7 13 7 5 3 2 3 2 4 1 2 2 3 4 4 5
Wind_Direction
50 22 13 8 15 37 31 1 352 337 332 339 353 347 335 317 310 303 309 316 326 317 311 309 319 346 346 349 343 325 314 309 298 290 279 272 268 274 269 247 243 251 245
56 30 7 5 32 19 8 356 325 335 2 3 348 338 332 325 337 342 324 316 315 316 343 342 329 323 317 313 306 303 295 289 287 286 287 281 278 267 269 258 246 243 252
65 43 14 31 10 5 351 348 10 7 8 8 350 328 325 338 339 331 332 318 318 336 354 335 330 324 320 314 305 299 293 295 290 288 284 278 277 276 261 262 255 251 254
51 36 13 22 358 356 14 22 9 13 9 4 334 312 332 339 333 330 330 354 343 328 327 341 327 319 319 312 301 299 302 300 300 293 284 279 273 274 270 257 254 252 243
50 39 17 352 10 11 17 17 26 12 7 343 325 315 324 317 325 330 343 337 329 338 341 344 330 322 316 312 311 311 307 306 297 290 285 285 276 272 274 266 254 247 239
62 62 26 11 16 30 9 25 23 337 342 318 320 314 314 305 317 0 337 331 341 350 335 319 308 306 323 316 311 306 307 301 297 290 290 292 290 285 272 271 263 250 247
45 55 40 47 37 19 6 358 331 346 326 318 340 316 288 287 354 354 332 324 325 337 321 329 323 316 308 305 300 302 298 294 290 278 278 284 285 281 276 269 265 262 248
68 109 82 89 30 355 348 350 342 308 300 331 314 316 329 318 8 317 319 314 306 321 322 326 321 314 304 294 284 296 304 301 298 293 293 284 283 285 278 269 260 255 253
169 224 127 112 60 39 349 331 322 294 302 307 336 259 314 291 319 232 284 281 307 319 318 311 308 304 299 294 283 289 294 295 293 293 299 296 288 285 286 275 259 257 250
226 189 104 80 112 48 351 317 315 305 261 284 326 256 234 263 306 306 247 282 304 310 309 302 302 303 299 296 291 303 316 314 304 290 283 290 292 289 282 277 267 257 256
252 48 83 37 117 70 303 292 304 315 283 261 232 281 279 266 250 257 307 320 304 310 287 283 297 293 303 325 316 299 313 311 305 295 286 287 287 290 287 277 265 261 256
54 39 3 8 355 295 289 285 285 295 284 298 281 281 272 276 281 283 296 313 317 329 305 289 292 296 303 286 309 319 318 309 305 299 293 290 284 279 276 270 269 264 261
18 1 24 342 318 291 282 277 295 283 277 267 270 271 268 265 267 271 274 310 320 316 309 302 308 302 295 294 300 319 320 317 306 295 289 286 281 276 273 271 264 262 258
356 346 344 328 315 302 303 273 304 296 298 287 288 283 278 272 278 258 267 315 323 320 323 318 300 302 297 302 304 323 316 318 313 304 298 289 280 275 267 259 256 258 252
339 338 318 307 297 295 289 271 272 287 332 309 301 296 280 271 294 289 264 278 297 319 325 321 316 307 307 308 301 321 313 311 320 315 308 300 293 278 265 257 249 245 247
338 328 323 322 319 313 336 3 359 10 2 335 327 318 306 279 287 293 297 285 207 256 299 313 310 306 310 307 291 323 308 326 320 317 311 313 316 320 304 261 248 240 236
344 343 338 339 341 21 41 35 15 3 352 335 328 328 305 296 282 306 302 298 283 235 283 307 304 310 312 309 299 303 319 321 319 317 318 323 317 316 335 330 267 235 228
345 325 329 329 14 65 43 34 357 337 329 321 313 311 318 312 310 311 297 298 298 295 286 302 304 314 313 306 282 308 324 321 323 316 321 327 343 340 350 340 327 276 231
306 316 331 2 102 97 58 1 343 333 316 305 301 313 310 322 316 299 296 314 337 314 301 294 303 308 306 303 310 303 319 320 331 325 323 327 331 341 347 346 339 311 263
274 312 318 55 120 154 177 291 341 327 310 315 304 304 313 324 309 313 326 321 321 303 299 311 306 308 301 310 311 317 331 335 330 323 331 317 326 336 346 1 353 340 288
258 281 301 278 207 217 235 261 306 299 304 302 302 311 324 329 346 2 352 333 320 299 312 319 317 320 320 331 335 314 319 319 329 330 342 336 339 342 351 2 1 359 0
271 280 289 257 235 246 245 231 232 293 311 296 286 299 305 329 333 318 329 324 320 319 313 314 317 323 317 318 315 315 314 333 335 333 336 326 345 357 351 3 13 25 32
300 288 283 281 245 252 237 223 280 303 311 294 294 308 313 320 295 275 328 331 322 310 302 300 292 309 305 313 305 304 301 318 303 303 312 322 350 13 358 11 22 32 38
283 278 285 282 270 262 255 131 326 328 312 318 320 323 319 324 328 16 334 319 302 299 285 290 312 302 297 299 289 271 280 293 296 288 343 336 339 13 3 19 23 24 36
295 290 288 286 317 336 99 88 9 331 312 323 320 314 332 336 348 329 320 308 308 299 299 320 305 302 300 311 322 299 314 341 313 318 18 307 358 344 351 348 353 21 38
282 309 306 341 96 99 101 52 336 306 318 323 319 326 332 330 318 320 317 312 307 314 318 311 310 317 326 335 346 2 322 298 300 316 24 343 335 341 9 346 344 352 19